Orbital Elements at Epoch 2459200.5 (2020-Dec-17.0) TDB
Reference: JPL 20 (heliocentric ecliptic J2000)
Element | Value | Uncertainty (1-sigma) | Units |
e | .07406992138747845 | 0.00086641 | |
a | 1.048993217364077 | 0.0015855 | au |
q | .9712943722179214 | 0.00055916 | au |
i | .4408834455833855 | 0.0064432 | deg |
node | 123.9900249343984 | 1.5792 | deg |
peri | 343.7266474718988 | 2.1341 | deg |
M | 317.6311190254061 | 0.058492 | deg |
tp | 2459246.685105505744 (2021-Feb-01.18510551) | 0.16847 | TDB |
period | 392.4257048950116 1.07 | 0.88967 0.002436 | d yr |
n | .9173710985530709 | 0.0020798 | deg/d |
Q | 1.126692062510232 | 0.0017029 | au |
|
| | Orbit Determination Parameters
Additional Information
|